Theta_e
335 336 336 339 340 338 337 334 334 334 335 334 334 334 334 335 339 341 343 346 347 346 345 344 347 346 346 346 347 346 346 345 343 341 342 341 341 339 338 336 334 331 331 331
335 337 337 337 335 333 334 335 334 335 335 335 336 334 334 335 336 338 342 347 346 345 345 346 346 345 346 345 345 344 343 343 341 340 341 339 338 337 336 334 333 332 329 329
336 334 336 334 332 332 333 337 337 336 333 332 332 336 338 337 339 339 342 342 344 342 347 347 346 345 344 344 343 341 342 342 342 340 340 339 338 337 336 334 332 330 328 326
334 332 332 331 331 331 333 332 333 333 332 333 332 334 334 335 341 342 343 343 342 342 347 345 345 344 343 342 342 342 341 341 341 342 339 339 337 335 333 331 331 330 326 322
331 332 331 331 331 330 331 331 332 331 332 333 332 339 335 339 342 339 343 343 342 343 346 344 344 343 342 342 341 341 341 341 341 340 339 338 334 330 329 328 327 326 324 320
331 330 330 330 330 331 331 332 332 332 332 335 340 347 340 341 338 338 338 343 342 343 345 344 343 342 342 341 342 342 341 340 339 337 336 333 330 326 325 325 321 320 318 316
333 332 331 332 333 332 334 336 340 338 337 337 336 342 337 339 338 337 336 344 342 344 347 344 343 342 340 337 339 339 338 338 335 332 328 326 327 327 327 324 319 316 315 315
331 331 334 335 335 334 334 334 334 338 338 340 332 333 341 340 338 337 338 343 343 345 344 342 341 338 337 336 335 334 333 330 328 325 326 327 327 326 321 321 316 315 316 316
335 335 334 334 333 335 335 335 333 337 336 335 336 338 337 340 342 339 342 343 344 343 342 340 335 332 333 332 331 327 326 325 325 327 327 328 327 324 321 318 318 317 317 317
335 337 334 334 332 333 335 335 339 338 348 351 340 336 337 344 343 342 341 342 344 343 340 333 332 331 330 329 326 326 325 326 326 326 326 327 326 322 320 317 319 319 318 319
334 337 339 336 336 337 338 339 340 342 346 350 349 343 340 342 339 338 340 342 343 342 334 331 331 329 327 326 325 326 326 325 325 325 326 326 324 321 318 317 318 319 318 319
338 342 341 337 334 333 336 339 339 343 347 344 347 349 339 342 340 339 337 341 342 339 332 331 329 328 327 326 326 327 326 325 325 325 325 325 324 322 318 317 318 319 319 319
339 338 338 332 332 340 341 341 339 341 343 347 350 344 341 341 343 341 337 340 342 337 332 329 327 327 327 327 326 326 326 326 325 325 324 324 323 322 320 319 318 319 319 319
336 335 336 339 339 339 339 338 337 340 350 345 344 343 343 343 339 340 342 341 339 335 333 331 328 326 327 326 326 326 326 326 326 324 323 322 322 321 321 319 318 318 319 319
341 344 340 339 337 337 338 337 339 340 340 346 344 341 339 337 339 340 339 334 329 327 335 333 331 328 328 328 328 327 327 327 325 323 322 321 321 321 321 320 320 319 319 320
342 343 339 341 337 337 338 340 340 338 338 340 341 337 332 335 337 340 335 332 329 328 333 334 333 330 329 329 328 327 327 326 323 323 322 321 321 321 321 321 321 321 320 320
342 342 342 343 338 338 341 341 339 337 338 337 341 334 331 331 329 327 330 330 330 332 332 333 332 331 330 329 328 326 324 323 323 323 322 322 321 321 320 321 321 321 321 322
341 342 342 343 339 345 343 338 334 337 334 333 333 331 329 329 328 327 324 328 328 326 326 328 329 328 324 322 322 322 323 322 323 323 322 322 321 320 320 321 322 322 323 323
340 341 341 343 339 338 339 338 339 338 335 333 333 333 333 331 329 331 327 324 325 325 325 324 323 323 324 326 325 325 324 323 323 323 323 323 323 322 322 321 321 323 323 324
339 340 339 341 342 338 342 337 335 335 339 333 333 334 332 331 331 328 325 326 326 326 326 326 325 326 327 326 325 324 326 326 324 321 322 324 325 325 324 324 324 325 324 325
344 344 341 338 340 337 337 335 333 343 339 332 331 331 329 331 330 328 327 327 327 326 325 325 326 321 319 319 321 320 318 315 314 315 318 319 319 319 321 321 322 322 323 323
338 339 338 339 337 339 336 334 337 338 331 331 329 328 328 328 327 328 329 329 328 327 327 323 319 316 314 313 315 314 311 309 310 311 312 312 313 314 314 315 317 318 316 316
339 337 344 339 342 342 337 336 338 333 331 329 329 328 328 328 329 330 328 326 323 321 320 318 318 315 312 310 308 309 306 306 306 308 309 309 310 310 309 311 312 311 313 312
341 338 338 338 338 338 337 337 335 330 330 328 328 328 328 331 330 327 325 323 320 318 317 316 315 313 311 307 305 303 302 301 302 303 303 304 304 301 303 304 307 307 308 308
338 342 339 338 337 337 335 334 333 328 329 329 328 329 331 329 326 324 322 320 318 316 314 313 312 310 307 304 302 300 299 298 298 298 299 299 297 297 298 299 299 299 300 297
336 341 337 346 339 339 336 332 330 330 329 329 328 327 325 325 323 321 320 317 315 312 309 308 306 305 305 301 298 297 296 296 296 297 297 296 295 296 297 297 297 297 296 295
Wind_Speed
19 15 13 2 23 18 14 13 15 9 13 4 11 14 13 7 8 10 7 7 8 9 12 10 9 9 9 7 9 11 11 11 10 9 9 7 8 8 7 6 3 2 1 1
15 12 24 26 9 13 18 16 15 4 18 5 16 15 14 13 9 10 8 8 8 12 12 11 11 10 11 10 11 13 13 10 7 6 7 6 9 9 6 3 5 2 1 1
16 9 23 10 12 15 16 16 21 20 17 16 20 16 6 13 22 10 8 9 11 14 13 11 13 13 14 13 14 13 11 8 5 6 5 5 4 3 4 6 7 4 0 2
14 11 8 12 15 13 16 13 16 18 17 16 18 16 17 14 14 14 12 11 12 12 13 11 14 15 14 14 14 12 10 7 5 2 1 3 6 6 11 5 3 0 1 3
14 10 10 13 14 13 18 18 18 19 19 21 22 18 8 16 20 14 11 14 12 14 13 13 13 14 13 13 12 10 9 6 5 3 2 2 2 4 3 0 1 2 1 2
15 14 16 18 13 18 19 21 16 22 19 18 4 8 11 6 11 4 7 11 9 15 14 11 13 14 13 13 13 11 10 8 6 5 7 7 6 4 5 3 6 3 4 4
21 20 18 5 10 17 17 12 15 14 13 11 10 13 13 8 7 5 5 10 9 14 14 13 12 13 12 11 11 12 8 7 7 8 6 5 3 2 1 3 4 5 5 4
13 15 8 7 9 14 15 17 13 22 16 18 22 19 10 13 4 4 0 11 14 12 15 14 12 13 12 11 9 8 9 8 8 7 5 4 1 1 2 3 5 5 5 6
14 15 12 10 7 11 18 14 20 14 21 18 11 15 10 8 11 4 7 11 13 13 15 12 10 7 10 9 7 7 10 9 7 7 4 3 0 2 5 4 4 3 5 8
12 16 15 17 17 12 20 15 16 10 9 13 18 7 8 6 11 11 10 12 12 14 14 10 10 12 10 10 10 8 7 8 6 3 3 3 0 2 5 4 5 5 6 7
12 12 15 17 17 14 9 9 2 10 5 7 17 6 21 2 9 4 7 11 12 9 14 11 12 13 13 11 12 9 7 5 5 4 3 2 3 4 6 6 7 8 9 9
7 7 14 18 19 17 6 14 14 9 12 11 4 11 8 12 20 10 3 11 18 19 15 13 14 14 13 11 11 11 2 2 3 4 2 4 4 6 7 7 8 9 10 10
9 7 13 12 10 6 6 11 10 7 8 17 15 10 6 13 19 30 8 4 17 16 16 13 13 12 8 7 5 4 5 3 6 6 6 4 4 7 9 10 10 11 12 12
2 9 13 13 16 15 15 16 12 4 3 12 14 13 10 7 8 17 13 16 14 12 9 8 7 10 11 6 3 3 3 5 6 7 7 7 7 9 10 10 12 13 13 14
4 11 13 15 15 16 13 13 14 11 12 4 15 10 8 10 7 10 13 18 14 18 14 15 7 1 10 11 5 5 6 6 6 6 6 7 8 8 9 11 12 13 14 15
3 8 10 15 19 5 11 7 6 5 6 11 9 6 13 12 11 11 14 14 13 8 10 10 15 11 4 3 5 2 3 2 3 4 7 6 7 9 11 13 13 14 15 15
4 8 9 13 3 8 3 3 3 3 7 10 5 6 10 12 12 12 8 8 8 13 17 16 11 3 2 3 7 1 3 4 4 5 7 8 8 12 14 15 17 18 17 16
7 8 7 9 11 8 5 4 1 6 6 7 8 6 3 1 3 2 5 8 5 6 5 5 8 13 8 4 4 3 2 3 6 8 9 13 13 16 18 19 20 21 19 19
5 7 7 6 10 6 8 7 8 5 7 5 6 4 7 7 9 11 11 3 5 7 6 5 6 8 7 7 4 4 4 6 8 10 12 14 16 18 19 21 21 22 19 20
7 6 7 9 11 9 8 5 4 5 2 8 6 7 12 12 6 9 7 6 7 7 6 6 7 10 9 9 7 5 10 10 12 13 15 16 16 16 18 19 20 21 20 22
10 8 11 9 8 2 7 8 6 7 2 10 10 9 6 5 5 7 8 6 8 7 6 10 15 11 11 12 11 11 12 13 14 15 15 14 16 17 19 19 19 22 22 22
9 7 7 7 6 5 7 5 7 3 6 4 3 4 6 7 6 8 9 8 10 11 13 11 10 10 11 13 11 11 13 14 15 15 16 16 16 16 17 17 17 18 18 18
6 5 4 6 2 3 4 6 4 5 6 5 4 3 5 7 7 8 8 8 9 9 9 9 8 8 9 11 11 10 11 13 15 14 15 15 16 16 18 17 17 16 12 15
6 7 7 5 2 7 9 7 7 8 6 3 3 4 6 9 8 9 8 7 7 7 8 6 6 7 8 9 10 11 14 16 16 17 17 15 16 18 16 18 18 18 12 15
2 10 6 10 13 10 7 7 7 6 5 4 6 5 7 9 8 9 7 6 7 7 7 8 8 7 7 9 10 12 14 15 16 16 16 16 17 18 18 15 16 17 15 12
2 3 2 14 8 9 7 10 8 9 7 9 10 10 6 7 7 8 7 7 6 7 6 6 7 8 8 9 10 13 14 15 15 16 16 16 18 17 16 16 18 15 11 12
Wind_Direction
214 243 253 348 222 236 229 297 302 341 301 293 281 304 304 280 202 250 216 207 197 159 129 139 134 139 135 136 128 136 142 140 147 167 159 164 177 181 182 176 173 193 172 27
230 235 336 298 329 301 296 286 284 352 263 289 277 276 275 293 241 239 217 206 210 144 149 133 139 140 131 135 135 134 136 137 142 145 129 174 177 179 178 176 146 145 99 31
259 231 224 262 293 283 280 291 296 295 304 284 268 299 233 237 227 207 181 198 200 162 151 143 142 137 135 136 140 144 140 136 119 119 130 140 148 159 174 175 167 117 63 18
262 302 303 309 281 280 279 291 281 287 300 294 312 286 285 267 183 203 175 179 182 160 150 148 144 143 134 139 143 141 138 140 133 174 180 155 186 205 144 165 90 89 31 0
276 255 231 240 279 300 290 299 305 289 281 278 271 308 287 64 255 9 219 182 186 154 160 155 143 138 137 137 140 140 141 132 128 106 101 163 353 137 159 63 45 292 225 277
279 272 279 275 279 290 288 283 276 270 267 272 93 202 270 178 323 311 100 147 176 155 136 141 139 137 139 147 153 153 150 139 131 101 95 67 63 18 2 48 302 309 291 309
244 246 248 292 297 279 260 304 284 281 259 252 257 263 279 42 48 10 312 133 152 137 136 153 158 147 159 142 153 155 140 137 126 124 119 106 97 84 146 312 357 309 319 340
294 292 122 218 296 309 309 301 290 301 303 306 318 296 24 21 23 62 316 131 140 148 159 175 133 167 159 155 158 163 132 136 139 142 135 127 128 180 292 78 322 312 325 329
296 287 329 301 305 304 300 293 305 283 272 273 301 301 242 135 19 148 128 135 151 171 152 118 149 158 124 143 146 145 136 139 158 153 155 164 225 5 355 323 292 337 324 328
294 293 296 300 293 253 251 272 290 303 341 309 295 279 271 100 159 208 174 162 159 142 142 136 142 140 135 154 136 132 156 155 163 176 180 176 207 305 331 289 282 306 312 318
290 282 292 300 278 294 328 253 180 258 150 219 271 324 345 307 320 21 157 168 137 127 138 160 153 138 155 151 145 150 158 169 177 214 228 270 294 317 320 288 288 303 312 310
354 313 294 290 291 278 300 290 297 312 305 276 319 283 138 274 357 343 352 172 149 146 171 167 142 152 160 164 151 151 180 292 266 258 270 292 286 314 315 294 292 301 304 305
342 285 300 294 287 52 292 307 295 275 306 299 302 300 16 348 357 331 293 191 147 154 171 139 139 146 161 155 143 162 185 256 288 308 293 243 270 288 303 300 290 298 299 297
306 270 263 283 301 312 303 303 296 259 228 273 291 309 23 355 346 281 31 50 350 99 86 113 119 166 164 170 202 223 246 270 291 308 310 307 296 297 300 302 293 288 293 291
270 277 285 290 310 294 309 310 357 321 308 350 288 42 353 332 311 3 63 54 43 354 55 23 297 338 173 168 192 255 260 283 300 302 290 281 287 290 292 292 291 289 287 289
201 284 293 297 274 288 290 30 316 305 358 302 69 67 33 36 47 55 61 67 64 359 348 214 259 243 177 214 230 270 331 265 274 262 265 280 292 291 287 283 281 279 278 280
262 295 298 289 323 306 231 349 4 324 5 321 303 49 54 48 44 33 36 107 186 218 230 233 231 56 107 36 53 11 222 217 236 261 277 278 285 285 284 281 277 274 273 274
278 278 281 273 279 258 97 93 90 77 95 90 120 163 135 180 216 110 261 240 216 303 28 27 60 70 78 90 120 150 211 246 266 282 289 295 288 289 290 290 290 292 282 278
242 276 289 270 301 134 151 175 199 211 153 143 142 180 200 207 212 214 227 144 68 65 67 70 97 103 87 47 22 342 317 306 298 299 318 319 309 297 295 294 290 289 290 283
224 242 267 286 294 299 138 132 202 146 250 162 184 196 179 203 231 122 160 117 85 67 55 46 63 74 45 10 350 343 12 5 357 333 319 317 322 311 304 300 297 297 291 283
217 238 254 267 255 6 114 152 184 234 138 174 212 235 193 142 99 100 114 85 79 58 54 91 63 55 32 19 25 30 20 9 348 340 335 328 332 331 326 341 336 337 318 304
254 276 264 229 281 277 140 173 238 132 157 188 201 152 128 124 113 91 83 79 75 59 61 64 66 54 41 33 30 30 20 358 351 347 342 338 336 331 328 329 323 326 344 347
248 252 315 311 354 158 227 268 101 189 185 187 193 183 149 131 113 110 102 87 80 73 74 72 75 75 53 40 33 23 5 352 345 340 334 329 328 327 326 322 317 322 322 347
219 200 230 270 5 236 228 216 205 207 210 172 216 180 178 132 131 125 110 102 92 74 67 60 58 50 39 25 17 9 358 351 345 341 333 331 329 333 326 321 321 330 345 335
0 174 287 279 259 226 224 208 188 197 126 151 84 81 92 130 138 129 121 111 95 80 64 42 28 22 18 6 5 -0 355 352 346 341 334 338 333 327 324 327 329 322 325 351
132 150 48 296 343 218 168 146 149 152 139 92 111 122 136 147 136 127 116 105 88 69 46 36 20 2 353 355 352 353 351 350 347 340 339 339 329 327 328 330 325 322 326 329